YAOGAN 25B

Satellite information

Favourite Embed

Satellite Type and Status

PAYLOADIN ORBIT

Key statistics

Satellite YAOGAN 25B at a glance.

Uptime

3862

Days in orbit

Revolutions

≈ 13.5

Per day

Orbit

LEO

Low Earth Orbit

Inclination

63.4

Latest

Satellite identification and parameters

Extended collection of information and parameters for YAOGAN 25B.

Object identification

Identified? True

Debris? False

Object name: YAOGAN 25B

International designator: 2014-080B

Object number (NORAD): 40339

Object ID (CCSDS): 40339

Country: PEOPLES REPUBLIC OF CHINA (PRC)

Current information (Y/N): Y

RCS size: LARGE

Orbital parameters

Period: 107.032 minutes

Inclination: 63.391 deg

SMA: 7467.416 km

Apoapsis: 1340.43 km

Periapsis: 838.133 km

RAAN: 120.3577 deg

Eccentricy: 0.0336326

Argument of periapsis: 7.3602 deg

Mean anomaly: 353.2186 deg

Mean motion: 13.4538692 rev/day

Mean motion (dot): -0.00000051 rev/day2

B* drag term: 0.00004735 1/REarth

Two-line elements (TLE)

Creation date: July 6, 2025, 10:46 p.m.

Reference frame: TEME

Reference center: EARTH

Epoch: July 6, 2025, 8:57 p.m. UTC

TLE line 0: 0 YAOGAN 25B

TLE line 1: 1 40339U 14080B 25187.87349853 -.00000051 00000-0 47350-4 0 9992

TLE line 2: 2 40339 63.3910 120.3577 0336326 7.3602 353.2186 13.45386920519395

Live tracking on map

Real-time ground track for satellite YAOGAN 25B.

In-orbit conjunctions

There are no conjunctions computed for YAOGAN 25B, at the moment. Check back to stay up to date, as we update our databases every day.

Go to all conjunctions

Associated space launch

YAOGAN 25B was lifted into orbit during the mission ‘Long March 4C | Yaogan 25A, Yaogan 25B, Yaogan 25C’, on board a Long March 4C space rocket.

The launch took place on Dec. 10, 2014, 7:33 p.m. from Launch Area 4 (SLS-2 / 603).

For more information about the launch, click the button.

Launch to space Long March 4C | Yaogan 25A, Yaogan 25B, Yaogan 25C
Long March 4C | Yaogan 25A, Yaogan 25B, Yaogan 25C

Agency: N/A

Status: Launch Successful

Launch date: Dec. 10, 2014, 7:33 p.m. UTC

Rocket: Long March 4C

Launch pad: Launch Area 4 (SLS-2 / 603)

Location: Jiuquan Satellite Launch Center, People's Republic of China

...

Latest news about this satellite

There are no fresh news available about this satellite. Check back as we update our databases every day.


Newsletter sign-up

Weekly statistics, charts and insights to help you stay on top of the space industry.